Regional Weather Roundup
Issued by NWS Bismarck, ND

Home | Current Version | Previous Version | Text Only | Print | Product List | Glossary On
Versions: 1 2 3 4 5 6 7 8 9 10 11 12 13 14 15 16 17 18 19 20 21 22 23 24 25 26 27 28 29 30 31 32 33 34 35 36 37 38 39 40 41 42 43 44 45 46 47 48 49 50
000
ASUS43 KBIS 220820
RWRBIS

NWR BROADCAST TEXT
NATIONAL WEATHER SERVICE BISMARCK ND
200 AM CST MON DEC 22 2014

NOTE: "FAIR" INDICATES FEW OR NO CLOUDS BELOW 12,000 FEET WITH NO
SIGNIFICANT WEATHER AND/OR OBSTRUCTIONS TO VISIBILITY.


CITY           SKY/WX    TMP DP  RH WIND       PRES   REMARKS
WILLISTON      CLOUDY    32  29  88 CALM      29.41S
MINOT          CLOUDY    28  27  96 SE9       29.43S FOG     WCI  19
MINOT AFB      FRZ DRZL  28  28 100 SE12      29.43S VSB 1   WCI  18
BISMARCK       CLOUDY    28  28 100 SE6       29.44F FOG
DICKINSON      CLOUDY    36  33  89 W15       29.39R
GARRISON         N/A     28  28 100 SE7       29.41F
HETTINGER ARPT CLOUDY    36  33  89 W13       29.43S
JAMESTOWN      CLOUDY    32  31  96 SE7       29.45F FOG
BEACH          LGT RAIN  32  32 100 W20G28    29.45S
CARRINGTON     CLOUDY    30  30 100 MISG      29.47S FOG
CROSBY         CLOUDY    27  27 100 CALM      29.42R
HARVEY         CLOUDY    28  28 100 SE7       29.45S FOG
HAZEN          CLOUDY    28  28 100 CALM      29.42F
LINTON         FOG       28  28 100 CALM      29.43F VSB 3/4
MANDAN         FOG       27  27 100 E3        29.43F VSB 1/4
OAKES            N/A     32  32 100 E12       29.45F FOG
RUGBY          CLOUDY    28  28 100 SE12      29.46F FOG     WCI  18
STANLEY        CLOUDY    27  27 100 SE5       29.40S
TIOGA          CLOUDY    28  28 100 CALM      29.42S
WATFORD CITY   CLOUDY    34  34 100 W6        29.39R FOG
$$

CITY           SKY/WX    TMP DP  RH WIND       PRES   REMARKS
GRAND FORKS    CLOUDY    34  34 100 SE7       29.53F
GRAND FORKS AF CLOUDY    33  33 100 SE5       29.54S FOG
DEVILS LAKE    CLOUDY    30  25  80 SE9       29.47F
FARGO          CLOUDY    37  35  92 SE9       29.52S FOG
CANDO          CLOUDY    28  28 100 SE9       29.50S FOG     WCI  20
CAVALIER       CLOUDY    32  32 100 SE5       29.56S FOG
GWINNER        CLOUDY    36  36 100 E10       29.47F VSB 1/2
LANGDON        CLOUDY    30  30 100 SE9       29.50F FOG
ROLLA          FOG       27  27 100 SE8       29.49S VSB 3/4 WCI  18
WALHALLA         N/A     32  32 100 SE9       29.55S FOG
$$

CITY           SKY/WX    TMP DP  RH WIND       PRES   REMARKS
ABERDEEN       CLOUDY    36  34  92 E3        29.44F
MOBRIDGE       CLOUDY    29  27  92 CALM      29.40F FOG
BUFFALO          N/A     38  32  79 NW32G46   29.40S
RAPID CITY     CLOUDY    40  30  67 NW31G47   29.50S
GLASGOW        CLOUDY    34  29  82 NW24G30   29.52R
SIDNEY         CLOUDY    36  30  80 W16       29.46R
WOLF POINT     CLOUDY    34  28  79 W16G26    29.50R
GLENDIVE       CLOUDY    36  32  87 W16G24    29.49S
MILES CITY     PTCLDY    39  28  64 W18       29.54S
BAKER          CLOUDY    36  32  85 W22G30    29.48R
$$

CITY           SKY/WX    TMP DP  RH WIND       PRES   REMARKS
BILLINGS       CLEAR     38  20  48 W26       29.69F
GREAT FALLS    CLEAR     29  23  78 SW12      29.71R WCI  19
REGINA         CLOUDY    23  23 100 N7        29.49R WCI  15
ESTEVAN        FOG       28  28 100 E8        29.42  VSB 1/4
$$



USA.gov is the U.S. government's official web portal to all federal, state and local government web resources and services.